[[[{"header":{"parameterUnit":"kt","parameterCategory":2,"dx":1,"dy":1,"la1":30.253999710083008,"la2":30.299108505249023,"lo1":-89.0895004272461,"lo2":-89.04439544677734,"nx":28,"ny":28,"refTime":"2022-10-25T21:00:00:Z","depth":0,"parameterNumber":1,"parameterNumberName":"U-component_of_WINDS"},"data":[2.9075,2.9119,2.9116,2.9165,2.917,2.9204,2.9215,2.923,2.924,2.9281,2.9305,2.9307,2.9317,2.9345,2.9371,2.9372,2.9384,2.9404,2.9401,2.9316,2.9304,2.9293,2.9282,2.9406,2.9406,2.949,2.9491,2.9492,2.9019,2.9024,2.9048,2.9069,2.909,2.907,2.9086,2.9105,2.9136,2.9149,2.9171,2.9207,2.9235,2.9238,2.9266,2.9289,2.9281,2.9297,2.9296,2.9298,2.9206,2.9195,2.9302,2.9302,2.9302,2.9302,2.9302,2.9302,2.8915,2.894,2.895,2.8976,2.8985,2.9,2.9024,2.9024,2.9048,2.9074,2.9064,2.91,2.9112,2.9142,2.9151,2.918,2.9162,2.9178,2.9182,2.9187,2.9194,2.9077,2.9184,2.9183,2.9183,2.9183,2.9182,0,2.8837,2.8832,2.8854,2.8875,2.8893,2.8909,2.8923,2.8938,2.8925,2.8946,2.8975,2.8992,2.9025,2.9053,2.9077,2.9083,2.9064,2.9061,2.9072,2.9079,2.9083,2.9084,2.8937,2.9058,2.9057,2.9056,2.9055,2.9055,2.8734,2.8763,2.877,2.8786,2.8792,2.8818,2.8833,2.8818,2.8835,2.885,2.8874,2.8901,2.8922,2.8971,2.8971,2.8996,2.8987,2.9034,2.8991,2.8996,2.8991,2.899,2.8995,2.9043,2.9045,2.9046,2.9047,0,2.8677,2.8668,2.8712,2.8715,2.8716,2.8749,2.8752,2.8777,2.8773,2.8808,2.8815,2.8809,2.8839,2.883,2.8861,2.8857,2.8915,2.8904,2.8911,2.8909,2.8953,2.895,2.9089,2.9108,2.8976,2.8978,2.8979,0,2.8587,2.8625,2.861,2.8635,2.8679,2.8662,2.8705,2.8706,2.8714,2.8741,2.8716,2.8742,2.8726,2.8752,2.8744,2.879,2.8795,2.8794,2.8792,2.8797,2.8798,2.8807,2.8802,2.8782,2.8782,2.8781,2.8781,0,2.85,2.8534,2.8576,2.8582,2.8588,2.8608,2.8612,2.8619,2.8634,2.865,2.866,2.8681,2.8693,2.871,2.87,2.8671,2.8754,2.8712,2.8754,2.8755,2.8773,2.8772,2.8897,2.878,2.8779,2.8779,2.8779,0,2.8424,2.844,2.8499,2.8504,2.8514,2.8541,2.856,2.858,2.859,2.8586,2.8599,2.8581,2.8617,2.8577,2.8628,2.8593,2.8607,2.8609,2.8612,2.8616,2.8571,2.8645,2.8763,2.8776,2.8619,2.8618,2.8617,0,2.8329,2.8385,2.837,2.8427,2.8452,2.8423,2.8452,2.846,2.8457,2.8479,2.8476,2.8501,2.8468,2.8475,2.8501,2.8499,2.8544,2.8492,2.8528,2.853,2.8529,2.8636,2.8657,2.8738,2.8599,2.8601,2.8602,0,2.8253,2.8257,2.8268,2.8275,2.8281,2.83,2.8334,2.8353,2.8369,2.8379,2.8409,2.8441,2.8419,2.8429,2.8416,2.8444,2.8513,2.8416,2.8416,2.8436,2.8588,2.8609,2.8622,2.8499,2.8501,2.8503,2.8589,0,2.8147,2.8172,2.82,2.8213,2.8226,2.826,2.8247,2.8263,2.8249,2.8244,2.8285,2.8287,2.8307,2.8318,2.8304,2.8369,2.8357,2.8332,2.8292,2.8362,2.8391,2.8402,2.8252,2.825,2.8249,2.8248,0,0,2.8059,2.8094,2.8074,2.8104,2.8114,2.8081,2.8118,2.8124,2.8136,2.8145,2.8122,2.8169,2.8171,2.8222,2.8243,2.825,2.8262,2.8236,2.8329,2.8338,2.8346,2.8376,2.8388,2.8246,2.8246,2.8246,2.8245,0,2.8017,2.8018,2.8053,2.8058,2.8064,2.8055,2.8064,2.8064,2.8062,2.81,2.8073,2.8096,2.8131,2.8139,2.8147,2.823,2.8208,2.8236,2.8286,2.8318,2.8329,2.8338,2.837,2.8381,2.8243,2.8243,2.8243,0,2.7942,2.7941,2.7956,2.7973,2.7976,2.8001,2.7957,2.7983,2.8002,2.7964,2.8002,2.8001,2.8009,2.8057,2.8078,2.8058,2.8161,2.8125,2.8131,2.8133,2.8164,2.8176,2.8187,2.8041,2.8041,2.804,0,0,2.7908,2.7929,2.7922,2.7963,2.7967,2.7954,2.7965,2.7951,2.7957,2.796,2.7958,2.7965,2.7986,2.8,2.8019,2.8073,2.8075,2.81,2.811,2.8118,2.8124,2.8157,2.8169,2.8038,2.8038,2.8037,0,0,2.7891,2.7884,2.7868,2.7913,2.7919,2.7915,2.7942,2.7922,2.7936,2.7931,2.7909,2.791,2.7954,2.7954,2.7923,2.8005,2.7965,2.7972,2.8003,2.8015,2.8024,2.8024,2.7877,0,0,0,0,0,2.784,2.7885,2.787,2.7875,2.7897,2.7924,2.7926,2.7908,2.7882,2.7904,2.7899,2.7874,2.7934,2.7906,2.7912,2.7946,2.8006,2.8012,2.8017,2.8069,2.8081,2.8092,0,0,0,0,0,0,2.7842,2.7848,2.7869,2.7867,2.7871,2.7922,2.7873,2.7869,2.7879,2.7874,2.7875,2.7874,2.7859,2.7901,2.7907,2.794,2.7875,2.8008,2.8013,2.8017,2.8073,2.8083,2.8092,0,0,0,0,0,2.7843,2.7849,2.7887,2.7866,2.787,2.7857,2.7871,2.7868,2.7875,2.7866,2.7864,2.786,2.7861,2.7865,2.7905,2.7938,2.7871,2.7873,2.8011,2.8015,2.8018,2.8078,0,0,0,0,0,0,2.7844,2.7846,2.7887,2.7888,2.7847,2.7854,2.7854,2.7866,2.7866,2.7864,2.785,2.7846,2.7862,2.7865,2.7868,2.7939,2.7868,2.787,2.7871,2.8014,2.8017,2.802,0,0,0,0,0,0,2.7843,2.7847,2.7887,2.7864,2.7862,2.7851,2.7852,2.7882,2.7867,2.785,2.7847,2.7848,2.7858,2.7866,2.7868,2.7916,2.7865,2.7867,2.7869,2.787,2.8017,2.8019,0,0,0,0,0,0,2.7844,2.7848,2.7864,2.7862,2.786,2.7866,2.7878,2.7901,2.7846,2.7851,2.7841,2.7838,2.786,2.7861,2.7868,2.7916,2.7916,2.7865,2.7867,2.7868,2.7868,0,0,0,0,0,0,0,2.7845,2.7828,2.7883,2.7861,2.7859,2.7893,2.7894,2.7894,2.7846,2.7844,2.7841,2.784,2.7852,2.7855,2.7857,2.7915,0,0,2.7865,2.7866,0,0,0,0,0,0,0,0,2.7827,2.7828,2.7883,2.7883,2.7884,2.7893,2.7894,2.7894,2.7845,2.7844,2.7842,2.784,2.7853,2.7855,2.7857,0,0,0,0,0,0,0,0,0,0,0,0,0,0,0,2.7883,2.7883,0,2.7894,2.7894,2.7894,2.7845,2.7844,2.7842,2.7841,2.7854,2.7855,2.7857,0,0,0,0,0,0,0,0,0,0,0,0,0,0,0,0,0,0,0,0,0,0,0,0,0,0,0,0,0,0,0,0,0,0,0,0,0,0,0,0,0,0,0,0,0,0,0,0,0,0,0,0,0,0,0,0,0,0,0,0,0,0,0,0,0,0,0,0,0]}],[{"header":{"parameterUnit":"kt","parameterCategory":2,"dx":1,"dy":1,"la1":30.253999710083008,"la2":30.299108505249023,"lo1":-89.0895004272461,"lo2":-89.04439544677734,"nx":28,"ny":28,"refTime":"2022-10-25T21:00:00:Z","depth":0,"parameterNumber":2,"parameterNumberName":"V-component_of_WINDS"},"data":[-6.6655,-6.6737,-6.6794,-6.6914,-6.6985,-6.7077,-6.7127,-6.7198,-6.7269,-6.7383,-6.7459,-6.7522,-6.7613,-6.7716,-6.78,-6.7826,-6.7858,-6.7849,-6.7881,-6.7875,-6.7877,-6.788,-6.7866,-6.7854,-6.7854,-6.7879,-6.788,-6.788,-6.6654,-6.6726,-6.6805,-6.6919,-6.6988,-6.7033,-6.7127,-6.7181,-6.726,-6.7346,-6.7423,-6.7527,-6.7616,-6.7711,-6.7805,-6.7844,-6.787,-6.7866,-6.7864,-6.7878,-6.7874,-6.7858,-6.7845,-6.7845,-6.7845,-6.7845,-6.7845,-6.7845,-6.6667,-6.6713,-6.6816,-6.6902,-6.6974,-6.705,-6.7103,-6.718,-6.7257,-6.7362,-6.7412,-6.7501,-6.7597,-6.7735,-6.7794,-6.7865,-6.7878,-6.789,-6.7894,-6.7896,-6.7893,-6.7855,-6.7883,-6.7883,-6.7883,-6.7883,-6.7884,0,-6.6694,-6.6739,-6.6817,-6.6913,-6.6978,-6.7056,-6.7137,-6.7171,-6.7279,-6.7337,-6.7426,-6.7486,-6.7603,-6.7692,-6.779,-6.7849,-6.7898,-6.7908,-6.7917,-6.7896,-6.7866,-6.7885,-6.7878,-6.7906,-6.7906,-6.7906,-6.7907,-6.7907,-6.6713,-6.6759,-6.689,-6.6938,-6.6996,-6.7069,-6.7125,-6.7217,-6.7271,-6.7383,-6.7417,-6.7507,-6.7584,-6.7713,-6.7799,-6.7885,-6.7909,-6.7915,-6.7922,-6.7902,-6.7913,-6.7909,-6.7916,-6.7911,-6.791,-6.791,-6.791,0,-6.672,-6.6809,-6.6896,-6.7021,-6.7054,-6.7096,-6.7203,-6.7251,-6.7318,-6.7393,-6.7416,-6.7521,-6.7604,-6.769,-6.78,-6.7841,-6.7915,-6.7935,-6.7885,-6.7894,-6.7909,-6.7907,-6.7939,-6.7949,-6.7959,-6.7959,-6.7959,0,-6.6771,-6.6825,-6.6956,-6.7002,-6.7067,-6.7157,-6.7218,-6.7282,-6.7364,-6.7424,-6.7494,-6.7548,-6.7648,-6.7715,-6.7776,-6.785,-6.7869,-6.7906,-6.7922,-6.7901,-6.7896,-6.7929,-6.793,-6.7952,-6.7952,-6.7952,-6.7951,0,-6.6771,-6.6903,-6.6978,-6.7022,-6.7158,-6.7191,-6.7248,-6.734,-6.7391,-6.7472,-6.7507,-6.7592,-6.7639,-6.7705,-6.7783,-6.7785,-6.7874,-6.7893,-6.7912,-6.791,-6.7926,-6.7924,-6.7932,-6.7951,-6.7951,-6.7951,-6.7951,0,-6.6826,-6.6907,-6.7,-6.7116,-6.7146,-6.7194,-6.7287,-6.7347,-6.7437,-6.748,-6.7543,-6.7598,-6.7668,-6.7681,-6.7779,-6.7761,-6.7804,-6.7844,-6.7847,-6.7858,-6.7871,-6.7866,-6.7863,-6.7867,-6.787,-6.787,-6.7869,0,-6.6804,-6.692,-6.6998,-6.7084,-6.715,-6.7226,-6.728,-6.7357,-6.7418,-6.7482,-6.7549,-6.7619,-6.7647,-6.768,-6.7718,-6.7788,-6.7812,-6.7787,-6.7878,-6.788,-6.7855,-6.7853,-6.7832,-6.7855,-6.7861,-6.7862,-6.7863,0,-6.6797,-6.696,-6.6969,-6.7025,-6.7141,-6.7194,-6.7256,-6.7347,-6.7386,-6.7462,-6.7517,-6.7616,-6.7643,-6.7695,-6.7747,-6.7782,-6.7798,-6.7804,-6.7807,-6.7802,-6.7863,-6.7844,-6.7848,-6.7826,-6.7827,-6.7828,-6.7857,0,-6.6864,-6.6932,-6.696,-6.7074,-6.7128,-6.7184,-6.7274,-6.732,-6.7367,-6.7429,-6.7508,-6.7589,-6.7677,-6.7701,-6.7745,-6.7796,-6.78,-6.7825,-6.7843,-6.7841,-6.7853,-6.7857,-6.7819,-6.782,-6.7821,-6.7822,0,0,-6.6821,-6.6919,-6.7,-6.7063,-6.7114,-6.719,-6.7242,-6.73,-6.7413,-6.7446,-6.7458,-6.7608,-6.7672,-6.7758,-6.7764,-6.7798,-6.7816,-6.7811,-6.7841,-6.7843,-6.7845,-6.7856,-6.7859,-6.7824,-6.7824,-6.7824,-6.7824,0,-6.6864,-6.6931,-6.6981,-6.7046,-6.7143,-6.7206,-6.7218,-6.7327,-6.7368,-6.7445,-6.7504,-6.7561,-6.7674,-6.7737,-6.7783,-6.7804,-6.7844,-6.7824,-6.7807,-6.7847,-6.7847,-6.7848,-6.7858,-6.7861,-6.7827,-6.7826,-6.7826,0,-6.6875,-6.6956,-6.6989,-6.7107,-6.717,-6.7233,-6.7277,-6.7339,-6.7387,-6.7461,-6.7535,-6.7591,-6.7679,-6.7747,-6.778,-6.7791,-6.7865,-6.7855,-6.7851,-6.7857,-6.7899,-6.7899,-6.79,-6.7894,-6.7893,-6.7893,0,0,-6.6899,-6.6961,-6.7075,-6.7123,-6.7159,-6.7252,-6.7293,-6.7343,-6.7422,-6.7453,-6.7525,-6.7598,-6.7667,-6.7709,-6.7776,-6.7838,-6.7864,-6.7859,-6.7856,-6.7853,-6.7857,-6.7898,-6.7899,-6.7893,-6.7893,-6.7893,0,0,-6.691,-6.7044,-6.7077,-6.7144,-6.7219,-6.7331,-6.7357,-6.74,-6.7469,-6.7472,-6.7557,-6.758,-6.7645,-6.7695,-6.7681,-6.7784,-6.7801,-6.7806,-6.7749,-6.7746,-6.7743,-6.7729,-6.7733,0,0,0,0,0,-6.6999,-6.7028,-6.7057,-6.7081,-6.7227,-6.7316,-6.7335,-6.7407,-6.7419,-6.7439,-6.7506,-6.7545,-6.7706,-6.7695,-6.7716,-6.7732,-6.7888,-6.7889,-6.789,-6.783,-6.7827,-6.7823,0,0,0,0,0,0,-6.7009,-6.7039,-6.7057,-6.7169,-6.7203,-6.7316,-6.7352,-6.7373,-6.7419,-6.7426,-6.7531,-6.7548,-6.7609,-6.7688,-6.7707,-6.772,-6.7727,-6.7888,-6.7889,-6.789,-6.7829,-6.7826,-6.7823,0,0,0,0,0,-6.7018,-6.7042,-6.7257,-6.7169,-6.7198,-6.7302,-6.7351,-6.7369,-6.7406,-6.7509,-6.7527,-6.7456,-6.7608,-6.7628,-6.77,-6.771,-6.7714,-6.7721,-6.7889,-6.7889,-6.789,-6.7828,0,0,0,0,0,0,-6.7024,-6.7058,-6.7265,-6.7276,-6.7163,-6.7297,-6.732,-6.7365,-6.7487,-6.7506,-6.7438,-6.7442,-6.7607,-6.7623,-6.7638,-6.7702,-6.7704,-6.7711,-6.7715,-6.7889,-6.789,-6.789,0,0,0,0,0,0,-6.7045,-6.7067,-6.727,-6.7259,-6.727,-6.7292,-6.7313,-6.7382,-6.7488,-6.741,-6.7417,-6.7438,-6.7583,-6.7619,-6.7632,-6.7737,-6.7697,-6.7703,-6.7708,-6.771,-6.789,-6.789,0,0,0,0,0,0,-6.7056,-6.7074,-6.7256,-6.7264,-6.7274,-6.7409,-6.7355,-6.7499,-6.748,-6.7403,-6.748,-6.748,-6.7578,-6.7592,-6.7627,-6.7727,-6.7734,-6.7697,-6.7701,-6.7704,-6.7706,0,0,0,0,0,0,0,-6.7064,-6.6923,-6.7196,-6.7269,-6.7278,-6.7383,-6.7386,-6.7389,-6.748,-6.748,-6.748,-6.748,-6.766,-6.7667,-6.7674,-6.7718,0,0,-6.7696,-6.7699,0,0,0,0,0,0,0,0,-6.6917,-6.6922,-6.7197,-6.7199,-6.7201,-6.7383,-6.7386,-6.7388,-6.748,-6.748,-6.748,-6.748,-6.7662,-6.7667,-6.7673,0,0,0,0,0,0,0,0,0,0,0,0,0,0,0,-6.7197,-6.7199,0,-6.7384,-6.7386,-6.7388,-6.748,-6.748,-6.748,-6.748,-6.7663,-6.7668,-6.7673,0,0,0,0,0,0,0,0,0,0,0,0,0,0,0,0,0,0,0,0,0,0,0,0,0,0,0,0,0,0,0,0,0,0,0,0,0,0,0,0,0,0,0,0,0,0,0,0,0,0,0,0,0,0,0,0,0,0,0,0,0,0,0,0,0,0,0,0,0]}]]]